Regional Weather Roundup
Issued by NWS

Home | Current Version | Previous Version | Graphics & Text | Print | Product List | Glossary On
Versions: 1 2 3 4 5 6 7 8 9 10 11 12 13 14 15 16 17 18 19 20 21 22 23 24 25 26 27 28 29 30 31 32 33 34 35 36 37 38 39 40 41 42 43 44 45 46 47 48 49 50
000
ASUS43 KLMK 232310
RWRKY
KENTUCKY REGIONAL WEATHER ROUNDUP
NATIONAL WEATHER SERVICE LOUISVILLE KY
700 PM EDT WED APR 23 2014

NOTE "FAIR" INDICATES FEW OR NO CLOUDS BELOW 12,000 FEET
WITH NO SIGNIFICANT WEATHER AND/OR OBSTRUCTIONS TO VISIBILITY.

KYZ001>023-026-027-061>063-070>075-240000-
WESTERN AND SOUTH CENTRAL KENTUCKY

CITY           SKY/WX    TMP DP  RH WIND       PRES   REMARKS
PADUCAH        SUNNY     69  37  30 E5        29.99S
HENDERSON      SUNNY     63  30  29 N6        30.02S
OWENSBORO      SUNNY     64  28  25 NE8       30.03R
HOPKINSVILLE   SUNNY     67  31  26 N6        29.99F
BOWLING GREEN  SUNNY     67  27  22 VRB5      30.01S
GLASGOW        SUNNY     64  30  27 CALM      30.01S
$$

KYZ024-025-028>034-038-045-046-053-240000-
NORTH CENTRAL KENTUCKY

CITY           SKY/WX    TMP DP  RH WIND       PRES   REMARKS
LOUISVILLE/SDF MOSUNNY   63  30  28 N9        30.03S
LOUISVILLE/LOU SUNNY     65  29  25 NE8       30.03F
FORT KNOX      SUNNY     62  29  29 N8        30.02S
$$

KYZ035>037-039>044-047>052-055>060-089>105-240000-
NORTHEAST KENTUCKY

CITY           SKY/WX    TMP DP  RH WIND       PRES   REMARKS
LEXINGTON      SUNNY     60  34  37 NE7       30.04S
COVINGTON      MOSUNNY   59  30  33 CALM      30.05S
FRANKFORT      SUNNY     61  29  29 N6        30.03S
$$

KYZ054-064>069-076>088-106>120-240000-
SOUTHEAST KENTUCKY

CITY           SKY/WX    TMP DP  RH WIND       PRES   REMARKS
JACKSON        SUNNY     61  25  25 VRB6      30.02R
LONDON         SUNNY     63  27  25 NE7       30.01R
SOMERSET       SUNNY     59  32  36 NE9       30.04R
MIDDLESBORO    SUNNY     66  28  24 NW8       29.99R
MONTICELLO     CLEAR     64  34  32 NE9       30.03R
$$




USA.gov is the U.S. government's official web portal to all federal, state and local government web resources and services.